Humidity-temperature Sensor

Selected Measurement Type: Relative Humidity

 
Relative Humidity [%]     6 entries per hour
Showing data from 9/19/2022 (00:00:00 Z) to 9/16/2022 (00:01:00 Z)
Previous Next [ Day | 3-Days | 7-Days ]
First Last
Prev [ Day | 3-Days | 7-Days ] Next
First Last

Start Time:     :
End Time:     :     
Time (in GMT) :00 :50 :40 :30 :20 :10
Previous Next [ Day | 3-Days | 7-Days ]
First Last
Prev [ Day | 3-Days | 7-Days ] Next
First Last


123 => good data
MM => data is determined as missing
-- => data not received/configured
Back to Top Back to Top
9/19/2022 00:00 to 23:10 90.39 91.34 90.55 90.01 88.93 88.47
9/18/2022 23:00 to 22:10 88.61 89.82 90.09 90.79 91.82 91.50
9/18/2022 22:00 to 21:10 91.40 91.70 91.28 91.14 91.14 91.22
9/18/2022 21:00 to 20:10 91.54 92.39 93.32 94.00 94.21 93.96
9/18/2022 20:00 to 19:10 93.60 93.50 93.24 93.50 93.46 93.58
9/18/2022 19:00 to 18:10 93.88 93.94 93.88 94.33 94.33 94.39
9/18/2022 18:00 to 17:10 94.27 94.33 94.35 94.51 94.61 94.71
9/18/2022 17:00 to 16:10 94.59 94.45 94.45 94.55 94.39 93.92
9/18/2022 16:00 to 15:10 93.66 93.50 93.34 93.78 93.68 93.84
9/18/2022 15:00 to 14:10 94.37 93.78 93.66 93.16 93.04 92.93
9/18/2022 14:00 to 13:10 93.58 93.76 93.74 94.25 93.86 93.78
9/18/2022 13:00 to 12:10 93.76 94.04 94.29 94.09 94.23 94.27
9/18/2022 12:00 to 11:10 94.09 93.46 93.34 93.06 93.30 93.40
9/18/2022 11:00 to 10:10 94.31 95.58 95.86 95.64 95.42 95.26
9/18/2022 10:00 to 9:10 95.28 95.14 94.85 94.67 94.61 94.51
9/18/2022 09:00 to 8:10 94.71 94.79 94.95 95.64 95.86 95.90
9/18/2022 08:00 to 7:10 95.86 96.02 95.64 95.68 96.19 96.04
9/18/2022 07:00 to 6:10 95.98 95.68 95.34 94.91 94.51 94.59
9/18/2022 06:00 to 5:10 94.63 94.47 94.00 93.78 93.82 93.46
9/18/2022 05:00 to 4:10 93.38 92.99 93.16 93.42 92.77 93.26
9/18/2022 04:00 to 3:10 93.36 93.44 93.66 93.42 93.60 93.74
9/18/2022 03:00 to 2:10 93.72 93.26 93.44 93.52 93.32 92.99
9/18/2022 02:00 to 1:10 93.20 93.06 92.91 92.35 92.13 91.18
9/18/2022 01:00 to 0:10 89.58 88.73 88.96 89.22 89.18 88.67
9/18/2022 00:00 to 23:10 88.69 87.68 87.86 88.23 88.13 87.66
9/17/2022 23:00 to 22:10 88.07 87.86 88.61 89.06 87.93 87.52
9/17/2022 22:00 to 21:10 87.99 88.45 88.25 88.59 88.07 88.57
9/17/2022 21:00 to 20:10 89.24 89.96 90.79 91.18 91.36 91.80
9/17/2022 20:00 to 19:10 91.36 92.11 92.75 93.16 93.10 93.12
9/17/2022 19:00 to 18:10 93.38 93.50 93.24 93.12 93.04 92.85
9/17/2022 18:00 to 17:10 92.83 92.85 92.97 93.28 93.24 92.77
9/17/2022 17:00 to 16:10 92.35 92.51 92.95 93.08 92.45 92.31
9/17/2022 16:00 to 15:10 91.36 90.85 91.50 91.24 90.83 90.77
9/17/2022 15:00 to 14:10 91.08 91.00 91.24 91.82 92.21 91.82
9/17/2022 14:00 to 13:10 92.19 92.63 93.32 93.52 93.28 93.28
9/17/2022 13:00 to 12:10 93.10 93.22 93.32 93.36 93.20 93.20
9/17/2022 12:00 to 11:10 93.36 92.61 92.41 92.81 92.65 92.29
9/17/2022 11:00 to 10:10 92.63 92.95 93.24 93.50 93.42 92.91
9/17/2022 10:00 to 9:10 93.08 93.10 93.16 93.44 93.42 93.84
9/17/2022 09:00 to 8:10 94.09 94.07 93.52 93.06 92.55 92.61
9/17/2022 08:00 to 7:10 92.85 93.01 93.32 93.24 92.89 92.83
9/17/2022 07:00 to 6:10 92.47 91.44 91.36 90.85 91.22 91.00
9/17/2022 06:00 to 5:10 90.77 90.39 90.07 89.90 90.37 90.25
9/17/2022 05:00 to 4:10 90.47 91.00 90.79 90.47 89.58 88.65
9/17/2022 04:00 to 3:10 88.17 87.16 88.31 90.21 90.49 90.83
9/17/2022 03:00 to 2:10 90.83 91.32 91.50 90.77 90.57 90.37
9/17/2022 02:00 to 1:10 90.31 89.90 89.88 90.47 91.10 90.55
9/17/2022 01:00 to 0:10 90.29 90.07 89.20 88.59 88.07 87.48
9/17/2022 00:00 to 23:10 87.60 88.01 87.20 87.54 85.08 84.63
9/16/2022 23:00 to 22:10 84.25 86.13 85.38 86.43 86.98 87.02
9/16/2022 22:00 to 21:10 87.00 87.06 87.40 86.67 87.10 86.83
9/16/2022 21:00 to 20:10 85.78 85.80 85.91 85.28 85.62 85.28
9/16/2022 20:00 to 19:10 86.63 86.69 85.97 85.89 86.23 87.48
9/16/2022 19:00 to 18:10 88.63 88.47 88.23 88.51 89.06 89.64
9/16/2022 18:00 to 17:10 89.22 89.72 89.28 88.21 87.30 88.57
9/16/2022 17:00 to 16:10 89.30 92.59 93.92 94.19 94.69 94.97
9/16/2022 16:00 to 15:10 94.97 95.14 95.24 95.18 94.91 95.10
9/16/2022 15:00 to 14:10 95.48 95.76 95.62 95.64 95.70 95.26
9/16/2022 14:00 to 13:10 95.05 95.01 95.03 95.03 94.89 94.89
9/16/2022 13:00 to 12:10 94.67 94.11 94.33 94.29 94.21 93.96
9/16/2022 12:00 to 11:10 94.19 94.29 94.41 94.67 94.81 94.85
9/16/2022 11:00 to 10:10 95.01 95.10 95.34 95.14 95.20 95.22
9/16/2022 10:00 to 9:10 95.10 95.20 95.30 95.44 95.40 95.24
9/16/2022 09:00 to 8:10 95.12 95.26 95.28 95.42 95.52 95.28
9/16/2022 08:00 to 7:10 95.14 95.05 95.20 95.34 95.44 95.54
9/16/2022 07:00 to 6:10 95.58 95.42 95.24 94.95 94.81 94.79
9/16/2022 06:00 to 5:10 94.79 94.39 94.02 94.09 93.96 93.74
9/16/2022 05:00 to 4:10 93.42 93.44 93.04 92.93 92.59 92.43
9/16/2022 04:00 to 3:10 92.59 92.45 92.05 91.76 91.70 91.30
9/16/2022 03:00 to 2:10 91.30 90.61 90.45 90.71 90.45 90.61
9/16/2022 02:00 to 1:10 90.01 90.47 90.65 90.23 89.52 88.89
9/16/2022 01:00 to 0:10 88.49 87.46 86.49 86.05 85.70 85.42